Regional Weather Roundup
Issued by NWS

Home | Current Version | Previous Version | Graphics & Text | Print | Product List | Glossary On
Versions: 1 2 3 4 5 6 7 8 9 10 11 12 13 14 15 16 17 18 19 20 21 22 23 24 25 26 27 28 29 30 31 32 33 34 35 36 37 38 39 40 41 42 43 44 45 46 47 48 49 50
000
ASUS44 KMEG 252110
RWRTN
TENNESSEE HOURLY STATE WEATHER ROUNDUP
NATIONAL WEATHER SERVICE MEMPHIS TN
400 PM CDT MON JUL 25 2016

TNZ002-004-019-021-049-052-054-088>092-252200-
WEST TENNESSEE

CITY           SKY/WX    TMP DP  RH WIND       PRES   REMARKS
MEMPHIS INTL   PTSUNNY   89  73  59 SW8       29.95F HX  97
NWS MEMPHIS      N/A     95 N/A N/A MISG        N/A
JACKSON        MOSUNNY   96  71  44 SW8       29.95F HX 103
DYERSBURG      PTSUNNY  N/A N/A N/A MISG        N/A
UNION CITY     MOSUNNY   81  75  83 NW16      29.98R
PARIS          MOSUNNY   91  75  59 SW9       29.97F HX 102
LEXINGTON      SUNNY     99  66  34 SW8       29.95F HX 102
$$

TNZ008-025-027-028-033-062-065-066-252200-
NORTH MIDDLE TENNESSEE

CITY           SKY/WX    TMP DP  RH WIND       PRES   REMARKS
NASHVILLE      CLOUDY    91  71  51 SW7       29.98F HX  97
CLARKSVILLE    MOSUNNY   90  73  57 SW7       29.97F HX  98
SMYRNA         MOSUNNY   98  67  36 VRB5      29.98F HX 102
COOKEVILLE     SUNNY     93  75  55 NW10      30.01S HX 104
CROSSVILLE     CLOUDY    89  68  49 W9        30.07F HX  93
$$

TNZ061-075-076-078-094-096-097-252200-
SOUTH MIDDLE TENNESSEE

CITY           SKY/WX    TMP DP  RH WIND       PRES   REMARKS
FAYETTEVILLE   MOSUNNY   95  66  38 VRB7      30.00F HX  98
TULLAHOMA      SUNNY     93  66  40 W6        30.03S HX  96
WINCHESTER     SUNNY     84  75  74 CALM      30.02F HX  92
MCMINNVILLE    SUNNY     93  72  49 W9        30.01F HX 100
COLUMBIA       SUNNY     99  66  34 S12       29.96F HX 102
SHELBYVILLE    SUNNY     97  72  44 SW5       30.00F HX 105
$$

TNZ017-018-042-046-047-252200-
NORTHEAST TENNESSEE

CITY           SKY/WX    TMP DP  RH WIND       PRES   REMARKS
TRI CITIES     MOSUNNY   93  67  42 VRB3      30.00F HX  96
ELIZABETHTON   MOSUNNY   95  68  41 CALM      30.00F HX  99
$$

TNZ012-013-036-069-073-074-252200-
CENTRAL EAST TENNESSEE

CITY           SKY/WX    TMP DP  RH WIND       PRES   REMARKS
KNOXVILLE      MOSUNNY   96  65  35 W8        29.98F HX  98
OAK RIDGE      SUNNY     96  66  37 W8        30.00F HX  99
GATLINBURG     SUNNY     90  68  48 VRB3      29.99F HX  93
MORRISTOWN     SUNNY     93  70  46 SW9G15    29.99F HX  99
$$

TNZ083-085-099-252200-
SOUTHEAST TENNESSEE

CITY           SKY/WX    TMP DP  RH WIND       PRES   REMARKS
CHATTANOOGA    CLOUDY    82  69  64 VRB6      30.01R THUNDER
$$

SKY/WX REPORTED AS FAIR MEANS FEW OR NO CLOUDS BELOW
12 THOUSAND FEET.





USA.gov is the U.S. government's official web portal to all federal, state and local government web resources and services.